Location: Bergheim
(50.9593°N, 6.6400°E)
Time: 23:06:26
(UTC+01:00)

ISS - Pass Details

Date: 01 October 2020
Orbit: 417 x 420 km, 51.6° (Epoch: 30 October)

Event Time Altitude Azimuth Distance (km) Brightness Sun altitude
Rises 21:04:51 0° 285° (WNW) 2,371 1.8 -18.6°
Reaches altitude 10° 21:07:01 10° 278° (W) 1,505 0.3 -18.9°
Maximum altitude 21:10:13 40° 207° (SSW) 631 -2.9 -19.4°
Enters shadow 21:10:33 39° 191° (S) 646 -3.0 -19.5°
